{"data":{"norad_id":57083,"epoch":"2026-05-25T00:29:09.922272Z","epoch_age_seconds":76500,"freshness":"FRESH","line1":"1 57083U 23088AM  26145.02025373  .00000639  00000+0  32752-4 0  9994","line2":"2 57083  43.0030  25.0839 0001230 271.1211  88.9500 15.27577742162177","mean_motion":15.27577742,"eccentricity":0.000123,"inclination_deg":43.003,"raan_deg":25.0839,"arg_perigee_deg":271.1211,"mean_anomaly_deg":88.95,"bstar":3.2752e-5,"rev_number":16217,"period_min":94.266888054723,"perigee_km":482.21193059084,"apogee_km":483.89978403374,"semimajor_km":6861.1928573123,"source":"CELESTRAK","updated_at":"2026-05-25T13:38:18.216029Z"}}